TimeMST,TemperatureF,Dew PointF,Humidity,Sea Level PressureIn,VisibilityMPH,Wind Direction,Wind SpeedMPH,Gust SpeedMPH,PrecipitationIn,Events,Conditions,WindDirDegrees,DateUTC
12:53 AM,26.1,19.9,78,30.38,10.0,West,10.4,-,0.00,,Mostly Cloudy,280,2013-02-15 07:53:00
1:53 AM,23.0,19.0,85,30.38,10.0,West,4.6,-,N/A,,Scattered Clouds,280,2013-02-15 08:53:00
2:53 AM,25.0,19.0,78,30.38,10.0,West,10.4,-,N/A,,Overcast,280,2013-02-15 09:53:00
3:20 AM,24.8,21.2,86,30.24,2.5,West,5.8,-,0.00,Snow,Light Snow,280,2013-02-15 10:20:00
3:35 AM,24.8,21.2,86,30.25,3.0,WNW,5.8,-,0.00,Snow,Light Snow,300,2013-02-15 10:35:00
3:42 AM,24.8,21.2,86,30.26,1.8,NNE,3.5,-,0.00,Snow,Light Snow,20,2013-02-15 10:42:00
3:53 AM,24.1,21.0,88,30.41,1.2,NNW,3.5,-,0.00,Snow,Light Snow,330,2013-02-15 10:53:00
4:06 AM,24.8,21.2,86,30.25,1.2,WNW,10.4,-,0.01,Snow,Light Snow,300,2013-02-15 11:06:00
4:12 AM,24.8,21.2,86,30.25,2.0,WNW,11.5,-,0.01,Snow,Light Snow,290,2013-02-15 11:12:00
4:18 AM,24.8,21.2,86,30.25,8.0,WSW,34.5,104.7,0.01,Snow,Light Snow,250,2013-02-15 11:18:00
4:35 AM,24.8,21.2,86,30.25,10.0,West,10.4,-,0.01,,Overcast,280,2013-02-15 11:35:00
4:53 AM,25.0,21.9,88,30.39,2.5,WNW,6.9,-,0.01,Snow,Light Snow,290,2013-02-15 11:53:00
5:02 AM,24.8,21.2,86,30.26,1.2,NW,6.9,-,0.00,Snow,Light Snow,310,2013-02-15 12:02:00
5:53 AM,25.0,21.9,88,30.43,1.0,NW,12.7,-,0.04,Snow,Light Snow,320,2013-02-15 12:53:00
6:06 AM,24.8,21.2,86,30.29,1.2,NW,15.0,-,0.00,Snow,Light Snow,310,2013-02-15 13:06:00
6:15 AM,24.8,21.2,86,30.29,1.0,WNW,13.8,-,0.01,Snow,Light Snow,290,2013-02-15 13:15:00
6:24 AM,24.8,21.2,86,30.29,2.0,WNW,13.8,-,0.01,Snow,Light Snow,300,2013-02-15 13:24:00
6:30 AM,24.8,21.2,86,30.29,5.0,NW,16.1,-,0.01,Snow,Light Snow,310,2013-02-15 13:30:00
6:39 AM,24.8,21.2,86,30.30,5.0,NW,16.1,-,0.01,Snow,Light Snow,310,2013-02-15 13:39:00
6:53 AM,25.0,21.0,85,30.44,4.0,NW,19.6,-,0.01,Snow,Light Snow,310,2013-02-15 13:53:00
7:27 AM,24.8,21.2,86,30.30,1.8,NW,16.1,-,0.00,Snow,Light Snow,310,2013-02-15 14:27:00
7:43 AM,24.8,21.2,86,30.30,2.0,WNW,19.6,-,0.00,Snow,Light Snow,300,2013-02-15 14:43:00
7:51 AM,24.8,21.2,86,30.30,6.0,WNW,20.7,-,0.00,Snow,Light Snow,300,2013-02-15 14:51:00
7:53 AM,25.0,21.0,85,30.45,7.0,WNW,19.6,-,0.00,Snow,Light Snow,300,2013-02-15 14:53:00
8:06 AM,24.8,21.2,86,30.31,2.0,WNW,17.3,-,0.00,Snow,Light Snow,300,2013-02-15 15:06:00
8:16 AM,24.8,21.2,86,30.31,3.0,NW,15.0,-,0.00,Snow,Light Snow,310,2013-02-15 15:16:00
8:53 AM,25.0,21.0,85,30.45,10.0,NW,11.5,-,0.00,,Overcast,310,2013-02-15 15:53:00
9:18 AM,26.6,21.2,80,30.33,1.8,NW,13.8,-,0.00,Snow,Light Snow,320,2013-02-15 16:18:00
9:38 AM,26.6,21.2,80,30.32,2.0,NW,15.0,-,0.00,Snow,Light Snow,310,2013-02-15 16:38:00
9:42 AM,26.6,21.2,80,30.32,6.0,NW,15.0,-,0.00,Snow,Light Snow,310,2013-02-15 16:42:00
9:53 AM,28.4,21.2,74,30.32,10.0,NW,16.1,-,N/A,,Overcast,310,2013-02-15 16:53:00
10:53 AM,28.9,19.9,69,30.45,10.0,NW,15.0,-,0.00,,Overcast,310,2013-02-15 17:53:00
11:53 AM,30.0,19.9,66,30.43,10.0,North,5.8,-,N/A,,Overcast,350,2013-02-15 18:53:00
12:53 PM,30.0,19.0,64,30.40,10.0,SW,4.6,-,N/A,,Scattered Clouds,230,2013-02-15 19:53:00
1:53 PM,30.0,19.0,64,30.38,10.0,Calm,Calm,-,N/A,,Clear,0,2013-02-15 20:53:00
2:53 PM,30.0,16.0,56,30.36,10.0,South,4.6,-,N/A,,Partly Cloudy,170,2013-02-15 21:53:00
3:53 PM,28.0,19.0,69,30.35,10.0,South,5.8,-,N/A,,Mostly Cloudy,180,2013-02-15 22:53:00
4:53 PM,27.0,19.9,75,30.33,10.0,SW,4.6,-,N/A,,Overcast,220,2013-02-15 23:53:00
5:53 PM,28.0,19.9,72,30.31,10.0,South,3.5,-,N/A,,Overcast,190,2013-02-16 00:53:00
6:53 PM,24.1,16.0,71,30.30,10.0,SSW,5.8,-,N/A,,Mostly Cloudy,200,2013-02-16 01:53:00
7:53 PM,27.0,17.1,66,30.28,10.0,Calm,Calm,-,N/A,,Overcast,0,2013-02-16 02:53:00
8:53 PM,23.0,16.0,74,30.27,10.0,Calm,Calm,-,N/A,,Clear,0,2013-02-16 03:53:00
9:53 PM,19.0,12.0,74,30.25,10.0,Calm,Calm,-,N/A,,Clear,0,2013-02-16 04:53:00
10:53 PM,19.9,12.0,71,30.24,10.0,Calm,Calm,-,N/A,,Clear,0,2013-02-16 05:53:00
11:53 PM,27.0,16.0,63,30.20,10.0,North,3.5,-,N/A,,Clear,360,2013-02-16 06:53:00